Weather in Lipakovo

Russia / Arkhangel'skaya Oblast'     62°24′22″N   39°41′29″E
temp.,
°C
wind,
m/s
gust,
m/s
humid.,
%
clouds,
%
prec.,
mm/h
press.,
hPa
HPBL,
m
9 march, tue
tue900:00−26n369899 0.0 1016182
03:00−28n279774 0.0 1018193
06:00−30n279619 0.0 1020221
09:00−28n269419 0.0 1021252
12:00−23n259039 0.0 1023365
15:00−19nnw258752 0.0 1023489
18:00−22nnw229551 0.0 102520
21:00−24wnw229626 0.0 102519
10 march, wed
wed1000:00−25w22914 0.0 102525
03:00−20w279850 0.1 1024262
06:00−20w2697100 0.1 1024178
09:00−18nw2594100 0.2 1025308
12:00−13nw248898 0.0 1025393
15:00−10nw258782 0.0 1026480
18:00−13nw239697 0.0 102648
21:00−16nw239790 0.1 102642
11 march, thu
thu1100:00−18wnw239722 0.0 102747
03:00−18w239511 0.0 102747
06:00−20w23900 0.0 102758
09:00−16w36780 0.0 1026251
12:00−11w38750 0.0 1025442
15:00−9wsw48710 0.0 1024698
18:00−12sw39850 0.0 1021207
21:00−14sw312877 0.0 1020387
12 march, fri
fri1200:00−13sw3129294 0.0 1018479
03:00−14sw3119387 0.0 1017384
06:00−15ssw389466 0.0 1017241
09:00−13ssw489046 0.0 1016330
12:00−8ssw410840 0.0 1015448
15:00−5ssw510800 0.0 1013619
18:00−8s412830 0.0 1012533
21:00−10s413860 0.0 1012519
13 march, sat
sat1300:00−13s4129122 0.0 1012524
03:00−12s4139259 0.0 1011594
06:00−11s51291100 0.1 1010637
09:00−10s51287100 0.1 1008713
12:00−7s61186100 0.1 1008767
15:00−5s61187100 0.1 1007793
18:00−6s51289100 0.1 1007743
21:00−8s41391100 0.1 1007576